Time,TemperatureF,DewpointF,PressureIn,WindDirection,WindDirectionDegrees,WindSpeedMPH,WindSpeedGustMPH,Humidity,HourlyPrecipIn,Conditions,Clouds,dailyrainin,SoftwareType,DateUTC
2013-03-25 00:00:00,28.1,28.0,29.49,NE,45,2.0,10.0,100,0.00,,,0.01,Rainwise IP-100,2013-03-25 04:00:00,
2013-03-25 00:01:00,28.1,28.0,29.49,NNE,22,5.0,10.0,100,0.00,,,0.00,Rainwise IP-100,2013-03-25 04:01:00,
2013-03-25 00:06:00,28.1,28.0,29.49,ENE,67,7.0,11.0,100,0.00,,,0.00,Rainwise IP-100,2013-03-25 04:06:00,
2013-03-25 00:11:00,28.0,28.0,29.49,NNE,22,6.0,10.0,100,0.00,,,0.00,Rainwise IP-100,2013-03-25 04:11:00,
2013-03-25 00:16:00,28.0,28.0,29.49,NW,315,2.0,9.0,100,0.00,,,0.00,Rainwise IP-100,2013-03-25 04:16:00,
2013-03-25 00:21:00,27.9,28.0,29.50,NNW,337,6.0,10.0,100,0.00,,,0.00,Rainwise IP-100,2013-03-25 04:21:00,
2013-03-25 00:26:00,27.9,28.0,29.49,NNE,22,6.0,10.0,100,0.00,,,0.00,Rainwise IP-100,2013-03-25 04:26:00,
2013-03-25 00:31:00,27.9,28.0,29.50,NNE,22,7.0,12.0,100,0.00,,,0.00,Rainwise IP-100,2013-03-25 04:31:00,
2013-03-25 00:36:00,27.9,28.0,29.50,North,360,2.0,12.0,100,0.00,,,0.00,Rainwise IP-100,2013-03-25 04:36:00,
2013-03-25 00:41:00,27.9,28.0,29.50,NNE,22,5.0,9.0,100,0.00,,,0.00,Rainwise IP-100,2013-03-25 04:41:00,
2013-03-25 00:46:00,27.9,28.0,29.50,NNE,22,1.0,11.0,100,0.00,,,0.00,Rainwise IP-100,2013-03-25 04:46:00,
2013-03-25 00:51:00,28.0,28.0,29.50,NNE,22,5.0,9.0,100,0.00,,,0.00,Rainwise IP-100,2013-03-25 04:51:00,
2013-03-25 00:56:00,28.0,28.0,29.50,NNE,22,4.0,9.0,100,0.00,,,0.00,Rainwise IP-100,2013-03-25 04:56:00,
2013-03-25 01:01:00,28.0,28.0,29.50,NNE,22,1.0,10.0,100,0.00,,,0.00,Rainwise IP-100,2013-03-25 05:01:00,
2013-03-25 01:07:00,28.1,28.0,29.50,North,360,5.0,8.0,100,0.00,,,0.00,Rainwise IP-100,2013-03-25 05:07:00,
2013-03-25 01:12:00,28.1,28.0,29.50,North,360,5.0,9.0,100,0.00,,,0.00,Rainwise IP-100,2013-03-25 05:12:00,
2013-03-25 01:17:00,28.1,28.0,29.50,NNE,22,4.0,8.0,100,0.00,,,0.00,Rainwise IP-100,2013-03-25 05:17:00,
2013-03-25 01:22:00,28.1,28.0,29.50,NNE,22,6.0,10.0,100,0.00,,,0.00,Rainwise IP-100,2013-03-25 05:22:00,
2013-03-25 01:27:00,28.1,28.0,29.50,NNE,22,6.0,10.0,100,0.00,,,0.00,Rainwise IP-100,2013-03-25 05:27:00,
2013-03-25 01:32:00,28.1,28.0,29.50,North,360,2.0,10.0,100,0.00,,,0.00,Rainwise IP-100,2013-03-25 05:32:00,
2013-03-25 01:37:00,28.1,28.0,29.50,NE,45,4.0,12.0,100,0.00,,,0.00,Rainwise IP-100,2013-03-25 05:37:00,
2013-03-25 01:42:00,28.1,28.0,29.50,North,360,6.0,9.0,100,0.00,,,0.00,Rainwise IP-100,2013-03-25 05:42:00,
2013-03-25 01:47:00,28.1,28.0,29.50,North,360,1.0,9.0,100,0.00,,,0.00,Rainwise IP-100,2013-03-25 05:47:00,
2013-03-25 01:52:00,28.1,28.0,29.50,North,360,1.0,10.0,100,0.00,,,0.00,Rainwise IP-100,2013-03-25 05:52:00,
2013-03-25 01:57:00,28.1,28.0,29.51,North,360,2.0,10.0,100,0.00,,,0.00,Rainwise IP-100,2013-03-25 05:57:00,
2013-03-25 02:02:00,28.2,28.0,29.51,North,360,4.0,9.0,100,0.00,,,0.00,Rainwise IP-100,2013-03-25 06:02:00,
2013-03-25 02:07:00,28.2,28.0,29.51,North,360,7.0,9.0,100,0.00,,,0.00,Rainwise IP-100,2013-03-25 06:07:00,
2013-03-25 02:12:00,28.2,28.0,29.51,NNE,22,1.0,10.0,100,0.00,,,0.00,Rainwise IP-100,2013-03-25 06:12:00,
2013-03-25 02:17:00,28.2,28.0,29.51,NNW,337,2.0,9.0,100,0.00,,,0.00,Rainwise IP-100,2013-03-25 06:17:00,
2013-03-25 02:22:00,28.2,28.0,29.51,NNE,22,1.0,9.0,100,0.00,,,0.00,Rainwise IP-100,2013-03-25 06:22:00,
2013-03-25 02:27:00,28.3,28.0,29.52,NNE,22,6.0,11.0,100,0.00,,,0.00,Rainwise IP-100,2013-03-25 06:27:00,
2013-03-25 02:32:00,28.4,28.0,29.52,NNE,22,5.0,10.0,100,0.00,,,0.00,Rainwise IP-100,2013-03-25 06:32:00,
2013-03-25 02:37:00,28.4,28.0,29.52,NNE,22,4.0,12.0,100,0.00,,,0.00,Rainwise IP-100,2013-03-25 06:37:00,
2013-03-25 02:42:00,28.5,29.0,29.52,North,360,4.0,13.0,100,0.00,,,0.00,Rainwise IP-100,2013-03-25 06:42:00,
2013-03-25 02:47:00,28.6,29.0,29.52,North,360,3.0,9.0,100,0.00,,,0.00,Rainwise IP-100,2013-03-25 06:47:00,
2013-03-25 02:52:00,28.6,29.0,29.52,NNE,22,4.0,9.0,100,0.00,,,0.00,Rainwise IP-100,2013-03-25 06:52:00,
2013-03-25 02:57:00,28.6,29.0,29.52,NNW,337,3.0,8.0,100,0.00,,,0.00,Rainwise IP-100,2013-03-25 06:57:00,
2013-03-25 03:02:00,28.6,29.0,29.52,NNE,22,6.0,7.0,100,0.00,,,0.00,Rainwise IP-100,2013-03-25 07:02:00,
2013-03-25 03:07:00,28.7,29.0,29.52,North,360,7.0,10.0,100,0.00,,,0.00,Rainwise IP-100,2013-03-25 07:07:00,
2013-03-25 03:12:00,28.7,29.0,29.53,NE,45,5.0,12.0,100,0.00,,,0.00,Rainwise IP-100,2013-03-25 07:12:00,
2013-03-25 03:17:00,28.7,29.0,29.53,NNW,337,1.0,8.0,100,0.00,,,0.00,Rainwise IP-100,2013-03-25 07:17:00,
2013-03-25 03:22:00,28.7,29.0,29.53,NNE,22,0.0,7.0,100,0.00,,,0.00,Rainwise IP-100,2013-03-25 07:22:00,
2013-03-25 03:27:00,28.5,29.0,29.53,NNE,22,5.0,13.0,100,0.00,,,0.00,Rainwise IP-100,2013-03-25 07:27:00,
2013-03-25 03:32:00,28.5,29.0,29.52,NNW,337,5.0,10.0,100,0.00,,,0.00,Rainwise IP-100,2013-03-25 07:32:00,
2013-03-25 03:37:00,28.4,28.0,29.53,NNW,337,5.0,9.0,100,0.00,,,0.00,Rainwise IP-100,2013-03-25 07:37:00,
2013-03-25 03:42:00,28.3,28.0,29.53,NE,45,3.0,9.0,100,0.00,,,0.00,Rainwise IP-100,2013-03-25 07:42:00,
2013-03-25 03:47:00,28.2,28.0,29.54,North,360,4.0,10.0,100,0.00,,,0.00,Rainwise IP-100,2013-03-25 07:47:00,
2013-03-25 03:52:00,28.2,28.0,29.54,NNE,22,4.0,7.0,100,0.00,,,0.00,Rainwise IP-100,2013-03-25 07:52:00,
2013-03-25 03:57:00,28.1,28.0,29.54,NW,315,2.0,7.0,100,0.00,,,0.00,Rainwise IP-100,2013-03-25 07:57:00,
2013-03-25 04:02:00,28.1,28.0,29.53,West,270,6.0,7.0,100,0.00,,,0.00,Rainwise IP-100,2013-03-25 08:02:00,
2013-03-25 04:07:00,28.1,28.0,29.54,NNW,337,2.0,10.0,100,0.00,,,0.00,Rainwise IP-100,2013-03-25 08:07:00,
2013-03-25 04:12:00,28.0,28.0,29.54,NW,315,0.0,7.0,100,0.00,,,0.00,Rainwise IP-100,2013-03-25 08:12:00,
2013-03-25 04:17:00,28.0,28.0,29.54,NNE,22,2.0,11.0,100,0.00,,,0.00,Rainwise IP-100,2013-03-25 08:17:00,
2013-03-25 04:22:00,27.9,28.0,29.53,North,360,2.0,6.0,100,0.00,,,0.00,Rainwise IP-100,2013-03-25 08:22:00,
2013-03-25 04:27:00,27.9,28.0,29.54,NW,315,0.0,9.0,100,0.00,,,0.00,Rainwise IP-100,2013-03-25 08:27:00,
2013-03-25 04:32:00,27.9,28.0,29.54,NW,315,1.0,7.0,100,0.00,,,0.00,Rainwise IP-100,2013-03-25 08:32:00,
2013-03-25 04:37:00,27.9,28.0,29.54,West,270,1.0,7.0,100,0.00,,,0.00,Rainwise IP-100,2013-03-25 08:37:00,
2013-03-25 04:42:00,27.9,28.0,29.54,North,360,2.0,7.0,100,0.00,,,0.00,Rainwise IP-100,2013-03-25 08:42:00,
2013-03-25 04:47:00,27.9,28.0,29.54,NW,315,2.0,7.0,100,0.00,,,0.00,Rainwise IP-100,2013-03-25 08:47:00,
2013-03-25 04:52:00,27.9,28.0,29.54,NNE,22,0.0,8.0,100,0.00,,,0.00,Rainwise IP-100,2013-03-25 08:52:00,
2013-03-25 04:57:00,27.8,28.0,29.54,NNW,337,6.0,7.0,100,0.00,,,0.00,Rainwise IP-100,2013-03-25 08:57:00,
2013-03-25 05:02:00,27.8,28.0,29.54,NNW,337,3.0,7.0,100,0.00,,,0.00,Rainwise IP-100,2013-03-25 09:02:00,
2013-03-25 05:07:00,27.8,28.0,29.55,NNE,22,1.0,9.0,100,0.00,,,0.00,Rainwise IP-100,2013-03-25 09:07:00,
2013-03-25 05:12:00,27.8,28.0,29.54,WSW,247,6.0,6.0,100,0.00,,,0.00,Rainwise IP-100,2013-03-25 09:12:00,
2013-03-25 05:17:00,27.8,28.0,29.54,NW,315,3.0,9.0,100,0.00,,,0.00,Rainwise IP-100,2013-03-25 09:17:00,
2013-03-25 05:22:00,27.7,28.0,29.55,NNE,22,1.0,6.0,100,0.00,,,0.00,Rainwise IP-100,2013-03-25 09:22:00,
2013-03-25 05:27:00,27.7,28.0,29.54,NNE,22,5.0,6.0,100,0.00,,,0.00,Rainwise IP-100,2013-03-25 09:27:00,
2013-03-25 05:32:00,27.8,28.0,29.55,NNE,22,6.0,7.0,100,0.00,,,0.00,Rainwise IP-100,2013-03-25 09:32:00,
2013-03-25 05:37:00,27.8,28.0,29.55,West,270,6.0,13.0,100,0.00,,,0.00,Rainwise IP-100,2013-03-25 09:37:00,
2013-03-25 05:42:00,27.8,28.0,29.55,West,270,7.0,8.0,100,0.00,,,0.00,Rainwise IP-100,2013-03-25 09:42:00,
2013-03-25 05:47:00,27.8,28.0,29.55,North,360,4.0,7.0,100,0.00,,,0.00,Rainwise IP-100,2013-03-25 09:47:00,
2013-03-25 05:52:00,27.8,28.0,29.55,NNW,337,6.0,6.0,100,0.00,,,0.00,Rainwise IP-100,2013-03-25 09:52:00,
2013-03-25 05:57:00,27.7,28.0,29.55,North,360,5.0,9.0,100,0.00,,,0.00,Rainwise IP-100,2013-03-25 09:57:00,
2013-03-25 06:02:00,27.7,28.0,29.55,NNW,337,1.0,9.0,100,0.00,,,0.00,Rainwise IP-100,2013-03-25 10:02:00,
2013-03-25 06:07:00,27.7,28.0,29.55,NW,315,2.0,8.0,100,0.00,,,0.00,Rainwise IP-100,2013-03-25 10:07:00,
2013-03-25 06:12:00,27.7,28.0,29.56,WNW,292,0.0,8.0,100,0.00,,,0.00,Rainwise IP-100,2013-03-25 10:12:00,
2013-03-25 06:17:00,27.8,28.0,29.56,NW,315,7.0,7.0,100,0.00,,,0.00,Rainwise IP-100,2013-03-25 10:17:00,
2013-03-25 06:22:00,27.8,28.0,29.56,NW,315,3.0,7.0,100,0.00,,,0.00,Rainwise IP-100,2013-03-25 10:22:00,
2013-03-25 06:27:00,27.8,28.0,29.56,WNW,292,3.0,6.0,100,0.00,,,0.00,Rainwise IP-100,2013-03-25 10:27:00,
2013-03-25 06:32:00,27.8,28.0,29.57,NNE,22,0.0,9.0,100,0.00,,,0.00,Rainwise IP-100,2013-03-25 10:32:00,
2013-03-25 06:37:00,27.8,28.0,29.57,West,270,1.0,6.0,100,0.00,,,0.00,Rainwise IP-100,2013-03-25 10:37:00,
2013-03-25 06:42:00,27.8,28.0,29.57,NNW,337,0.0,10.0,100,0.00,,,0.00,Rainwise IP-100,2013-03-25 10:42:00,
2013-03-25 06:47:00,27.8,28.0,29.57,North,360,0.0,9.0,100,0.00,,,0.00,Rainwise IP-100,2013-03-25 10:47:00,
2013-03-25 06:52:00,27.8,28.0,29.57,NNW,337,2.0,10.0,100,0.00,,,0.00,Rainwise IP-100,2013-03-25 10:52:00,
2013-03-25 06:57:00,27.8,28.0,29.57,NNW,337,1.0,9.0,100,0.00,,,0.00,Rainwise IP-100,2013-03-25 10:57:00,
2013-03-25 07:02:00,27.8,28.0,29.57,WNW,292,2.0,6.0,100,0.00,,,0.00,Rainwise IP-100,2013-03-25 11:02:00,
2013-03-25 07:07:00,27.8,28.0,29.58,NNW,337,0.0,12.0,100,0.00,,,0.00,Rainwise IP-100,2013-03-25 11:07:00,
2013-03-25 07:12:00,27.8,28.0,29.58,NNW,337,7.0,7.0,100,0.00,,,0.00,Rainwise IP-100,2013-03-25 11:12:00,
2013-03-25 07:17:00,27.7,28.0,29.58,NW,315,2.0,7.0,100,0.00,,,0.00,Rainwise IP-100,2013-03-25 11:17:00,
2013-03-25 07:22:00,27.7,28.0,29.58,WNW,292,3.0,6.0,100,0.00,,,0.00,Rainwise IP-100,2013-03-25 11:22:00,
2013-03-25 07:27:00,27.7,28.0,29.58,NW,315,0.0,8.0,100,0.00,,,0.00,Rainwise IP-100,2013-03-25 11:27:00,
2013-03-25 07:32:00,27.7,28.0,29.58,NNW,337,1.0,5.0,100,0.00,,,0.00,Rainwise IP-100,2013-03-25 11:32:00,
2013-03-25 07:37:00,27.7,28.0,29.59,NNE,22,0.0,9.0,100,0.00,,,0.00,Rainwise IP-100,2013-03-25 11:37:00,
2013-03-25 07:42:00,27.7,28.0,29.59,NW,315,3.0,7.0,100,0.00,,,0.00,Rainwise IP-100,2013-03-25 11:42:00,
2013-03-25 07:48:00,27.7,28.0,29.59,NNW,337,4.0,6.0,100,0.00,,,0.00,Rainwise IP-100,2013-03-25 11:48:00,
2013-03-25 07:53:00,27.7,28.0,29.59,NNW,337,0.0,7.0,100,0.00,,,0.00,Rainwise IP-100,2013-03-25 11:53:00,
2013-03-25 07:58:00,27.7,28.0,29.59,NW,315,1.0,6.0,100,0.00,,,0.00,Rainwise IP-100,2013-03-25 11:58:00,
2013-03-25 08:03:00,27.7,28.0,29.60,NNW,337,3.0,6.0,100,0.00,,,0.00,Rainwise IP-100,2013-03-25 12:03:00,
2013-03-25 08:08:00,27.7,28.0,29.60,NW,315,3.0,6.0,100,0.00,,,0.00,Rainwise IP-100,2013-03-25 12:08:00,
2013-03-25 08:15:00,27.7,28.0,29.60,NW,315,2.0,7.0,100,0.00,,,0.00,Rainwise IP-100,2013-03-25 12:15:00,
2013-03-25 08:20:00,27.7,28.0,29.60,West,270,5.0,9.0,100,0.00,,,0.00,Rainwise IP-100,2013-03-25 12:20:00,
2013-03-25 08:25:00,27.8,28.0,29.60,NW,315,5.0,9.0,100,0.00,,,0.00,Rainwise IP-100,2013-03-25 12:25:00,
2013-03-25 08:30:00,27.7,28.0,29.60,NNW,337,5.0,9.0,100,0.00,,,0.00,Rainwise IP-100,2013-03-25 12:30:00,
2013-03-25 08:35:00,27.8,28.0,29.61,WNW,292,4.0,7.0,100,0.00,,,0.00,Rainwise IP-100,2013-03-25 12:35:00,
2013-03-25 08:40:00,27.8,28.0,29.61,NNW,337,1.0,13.0,100,0.00,,,0.00,Rainwise IP-100,2013-03-25 12:40:00,
2013-03-25 08:45:00,27.8,28.0,29.61,NNW,337,1.0,9.0,100,0.00,,,0.00,Rainwise IP-100,2013-03-25 12:45:00,
2013-03-25 08:50:00,27.9,28.0,29.61,NNW,337,2.0,6.0,100,0.00,,,0.00,Rainwise IP-100,2013-03-25 12:50:00,
2013-03-25 08:55:00,27.9,28.0,29.62,WNW,292,0.0,7.0,100,0.00,,,0.00,Rainwise IP-100,2013-03-25 12:55:00,
2013-03-25 09:00:00,27.9,28.0,29.62,NNW,337,1.0,10.0,100,0.00,,,0.00,Rainwise IP-100,2013-03-25 13:00:00,
2013-03-25 09:05:00,27.9,28.0,29.62,NW,315,0.0,6.0,100,0.00,,,0.00,Rainwise IP-100,2013-03-25 13:05:00,
2013-03-25 09:10:00,28.1,28.0,29.62,NW,315,5.0,10.0,100,0.00,,,0.00,Rainwise IP-100,2013-03-25 13:10:00,
2013-03-25 09:15:00,28.2,28.0,29.63,West,270,1.0,6.0,100,0.00,,,0.00,Rainwise IP-100,2013-03-25 13:15:00,
2013-03-25 09:20:00,28.1,28.0,29.63,West,270,1.0,7.0,100,0.00,,,0.00,Rainwise IP-100,2013-03-25 13:20:00,
2013-03-25 09:25:00,28.1,28.0,29.63,WNW,292,3.0,7.0,100,0.00,,,0.00,Rainwise IP-100,2013-03-25 13:25:00,
2013-03-25 09:30:00,28.2,28.0,29.63,NW,315,2.0,7.0,100,0.00,,,0.00,Rainwise IP-100,2013-03-25 13:30:00,
2013-03-25 09:35:00,28.3,28.0,29.63,WNW,292,3.0,7.0,100,0.00,,,0.00,Rainwise IP-100,2013-03-25 13:35:00,
2013-03-25 09:40:00,28.5,29.0,29.63,West,270,1.0,8.0,100,0.00,,,0.00,Rainwise IP-100,2013-03-25 13:40:00,
2013-03-25 09:45:00,28.6,29.0,29.64,NW,315,4.0,6.0,100,0.00,,,0.00,Rainwise IP-100,2013-03-25 13:45:00,
2013-03-25 09:50:00,28.6,29.0,29.64,West,270,2.0,7.0,100,0.00,,,0.00,Rainwise IP-100,2013-03-25 13:50:00,
2013-03-25 09:55:00,28.7,29.0,29.64,NW,315,0.0,6.0,100,0.00,,,0.00,Rainwise IP-100,2013-03-25 13:55:00,
2013-03-25 10:00:00,28.9,29.0,29.64,NNW,337,2.0,10.0,100,0.00,,,0.00,Rainwise IP-100,2013-03-25 14:00:00,
2013-03-25 10:05:00,29.2,29.0,29.65,WNW,292,4.0,6.0,100,0.00,,,0.00,Rainwise IP-100,2013-03-25 14:05:00,
2013-03-25 10:10:00,29.4,29.0,29.65,NW,315,2.0,6.0,100,0.00,,,0.00,Rainwise IP-100,2013-03-25 14:10:00,
2013-03-25 10:15:00,29.3,29.0,29.65,NW,315,3.0,9.0,100,0.00,,,0.00,Rainwise IP-100,2013-03-25 14:15:00,
2013-03-25 10:20:00,29.4,29.0,29.65,NW,315,1.0,9.0,100,0.00,,,0.00,Rainwise IP-100,2013-03-25 14:20:00,
2013-03-25 10:25:00,29.4,29.0,29.65,WSW,247,4.0,8.0,100,0.00,,,0.00,Rainwise IP-100,2013-03-25 14:25:00,
2013-03-25 10:30:00,29.6,31.0,29.66,NNW,337,0.0,9.0,100,0.00,,,0.00,Rainwise IP-100,2013-03-25 14:30:00,
2013-03-25 10:35:00,29.9,31.0,29.66,NW,315,2.0,5.0,100,0.00,,,0.00,Rainwise IP-100,2013-03-25 14:35:00,
2013-03-25 10:40:00,29.9,31.0,29.66,North,360,6.0,6.0,100,0.00,,,0.00,Rainwise IP-100,2013-03-25 14:40:00,
2013-03-25 10:45:00,30.1,31.0,29.66,WNW,292,6.0,9.0,100,0.00,,,0.00,Rainwise IP-100,2013-03-25 14:45:00,
2013-03-25 10:50:00,30.4,31.0,29.67,NNW,337,1.0,7.0,100,0.00,,,0.00,Rainwise IP-100,2013-03-25 14:50:00,
2013-03-25 10:55:00,30.5,31.0,29.67,West,270,5.0,8.0,100,0.00,,,0.00,Rainwise IP-100,2013-03-25 14:55:00,
2013-03-25 11:00:00,30.7,31.0,29.67,WNW,292,2.0,9.0,100,0.00,,,0.00,Rainwise IP-100,2013-03-25 15:00:00,
2013-03-25 11:05:00,31.2,31.0,29.67,West,270,0.0,5.0,100,0.00,,,0.00,Rainwise IP-100,2013-03-25 15:05:00,
2013-03-25 11:10:00,31.3,31.0,29.67,West,270,3.0,6.0,100,0.00,,,0.00,Rainwise IP-100,2013-03-25 15:10:00,
2013-03-25 11:15:00,31.5,32.0,29.68,NW,315,0.0,7.0,100,0.00,,,0.00,Rainwise IP-100,2013-03-25 15:15:00,
2013-03-25 11:20:00,31.9,32.0,29.67,NW,315,0.0,7.0,100,0.00,,,0.00,Rainwise IP-100,2013-03-25 15:20:00,
2013-03-25 11:25:00,31.8,32.0,29.68,West,270,3.0,7.0,100,0.00,,,0.00,Rainwise IP-100,2013-03-25 15:25:00,
2013-03-25 11:30:00,31.8,32.0,29.68,West,270,1.0,7.0,100,0.00,,,0.00,Rainwise IP-100,2013-03-25 15:30:00,
2013-03-25 11:35:00,31.7,32.0,29.68,West,270,5.0,7.0,100,0.00,,,0.00,Rainwise IP-100,2013-03-25 15:35:00,
2013-03-25 11:40:00,31.3,31.0,29.69,WNW,292,6.0,10.0,100,0.00,,,0.00,Rainwise IP-100,2013-03-25 15:40:00,
2013-03-25 11:45:00,31.7,32.0,29.69,NW,315,7.0,7.0,100,0.00,,,0.00,Rainwise IP-100,2013-03-25 15:45:00,
2013-03-25 11:50:00,31.9,32.0,29.69,WNW,292,2.0,9.0,100,0.00,,,0.00,Rainwise IP-100,2013-03-25 15:50:00,
2013-03-25 11:55:00,31.9,32.0,29.69,North,360,0.0,7.0,100,0.00,,,0.00,Rainwise IP-100,2013-03-25 15:55:00,
2013-03-25 12:00:00,32.1,32.0,29.70,WNW,292,5.0,7.0,100,0.00,,,0.00,Rainwise IP-100,2013-03-25 16:00:00,
2013-03-25 12:05:00,32.3,32.0,29.70,WNW,292,2.0,6.0,100,0.00,,,0.00,Rainwise IP-100,2013-03-25 16:05:00,
2013-03-25 12:10:00,32.6,33.0,29.70,WNW,292,3.0,6.0,100,0.00,,,0.00,Rainwise IP-100,2013-03-25 16:10:00,
2013-03-25 12:15:00,32.7,33.0,29.70,NW,315,0.0,6.0,100,0.00,,,0.00,Rainwise IP-100,2013-03-25 16:15:00,
2013-03-25 12:20:00,32.9,33.0,29.70,NW,315,1.0,8.0,100,0.00,,,0.00,Rainwise IP-100,2013-03-25 16:20:00,
2013-03-25 12:25:00,33.3,33.0,29.70,West,270,3.0,7.0,100,0.00,,,0.00,Rainwise IP-100,2013-03-25 16:25:00,
2013-03-25 12:30:00,33.1,33.0,29.70,NNW,337,2.0,7.0,100,0.00,,,0.00,Rainwise IP-100,2013-03-25 16:30:00,
2013-03-25 12:35:00,33.1,33.0,29.70,North,360,6.0,9.0,100,0.00,,,0.00,Rainwise IP-100,2013-03-25 16:35:00,
2013-03-25 12:40:00,32.9,33.0,29.71,NW,315,4.0,7.0,100,0.00,,,0.00,Rainwise IP-100,2013-03-25 16:40:00,
2013-03-25 12:45:00,33.2,33.0,29.71,NE,45,4.0,7.0,100,0.00,,,0.00,Rainwise IP-100,2013-03-25 16:45:00,
2013-03-25 12:50:00,33.4,33.0,29.71,NW,315,2.0,6.0,100,0.00,,,0.00,Rainwise IP-100,2013-03-25 16:50:00,
2013-03-25 12:55:00,32.9,33.0,29.71,West,270,3.0,7.0,100,0.00,,,0.00,Rainwise IP-100,2013-03-25 16:55:00,
2013-03-25 13:00:00,33.0,33.0,29.72,WNW,292,6.0,7.0,100,0.00,,,0.00,Rainwise IP-100,2013-03-25 17:00:00,
2013-03-25 13:05:00,33.6,35.0,29.71,West,270,3.0,7.0,100,0.00,,,0.00,Rainwise IP-100,2013-03-25 17:05:00,
2013-03-25 13:10:00,33.2,33.0,29.72,NNW,337,3.0,9.0,100,0.00,,,0.00,Rainwise IP-100,2013-03-25 17:10:00,
2013-03-25 13:15:00,33.1,33.0,29.72,WNW,292,5.0,8.0,100,0.00,,,0.00,Rainwise IP-100,2013-03-25 17:15:00,
2013-03-25 13:20:00,33.6,35.0,29.72,West,270,6.0,8.0,100,0.00,,,0.00,Rainwise IP-100,2013-03-25 17:20:00,
2013-03-25 13:25:00,33.9,35.0,29.73,NW,315,7.0,7.0,100,0.00,,,0.00,Rainwise IP-100,2013-03-25 17:25:00,
2013-03-25 13:30:00,33.7,35.0,29.73,NW,315,4.0,12.0,100,0.00,,,0.00,Rainwise IP-100,2013-03-25 17:30:00,
2013-03-25 13:35:00,34.3,35.0,29.73,NW,315,3.0,7.0,100,0.00,,,0.00,Rainwise IP-100,2013-03-25 17:35:00,
2013-03-25 13:40:00,33.9,35.0,29.73,WNW,292,2.0,9.0,100,0.00,,,0.00,Rainwise IP-100,2013-03-25 17:40:00,
2013-03-25 13:45:00,34.0,35.0,29.73,WNW,292,6.0,7.0,100,0.00,,,0.00,Rainwise IP-100,2013-03-25 17:45:00,
2013-03-25 13:50:00,33.9,35.0,29.73,WNW,292,4.0,8.0,100,0.00,,,0.00,Rainwise IP-100,2013-03-25 17:50:00,
2013-03-25 13:55:00,34.3,35.0,29.73,NW,315,0.0,5.0,100,0.00,,,0.00,Rainwise IP-100,2013-03-25 17:55:00,
2013-03-25 14:00:00,34.5,35.0,29.74,WNW,292,7.0,7.0,100,0.00,,,0.00,Rainwise IP-100,2013-03-25 18:00:00,
2013-03-25 14:05:00,34.3,35.0,29.73,NNW,337,2.0,7.0,100,0.00,,,0.00,Rainwise IP-100,2013-03-25 18:05:00,
2013-03-25 14:10:00,34.5,35.0,29.73,NW,315,1.0,7.0,100,0.00,,,0.00,Rainwise IP-100,2013-03-25 18:10:00,
2013-03-25 14:15:00,34.6,35.0,29.74,WNW,292,7.0,7.0,98,0.00,,,0.00,Rainwise IP-100,2013-03-25 18:15:00,
2013-03-25 14:20:00,34.2,35.0,29.74,NW,315,1.0,8.0,99,0.06,,,0.02,Rainwise IP-100,2013-03-25 18:20:00,
2013-03-25 14:25:00,33.9,35.0,29.75,West,270,4.0,9.0,99,0.12,,,0.03,Rainwise IP-100,2013-03-25 18:25:00,
2013-03-25 14:30:00,34.1,35.0,29.75,West,270,6.0,11.0,98,0.18,,,0.04,Rainwise IP-100,2013-03-25 18:30:00,
2013-03-25 14:35:00,34.7,35.0,29.75,West,270,6.0,10.0,98,0.12,,,0.05,Rainwise IP-100,2013-03-25 18:35:00,
2013-03-25 14:40:00,34.7,33.0,29.75,WNW,292,6.0,9.0,96,0.06,,,0.06,Rainwise IP-100,2013-03-25 18:40:00,
2013-03-25 14:45:00,34.7,33.0,29.75,NW,315,6.0,9.0,96,0.12,,,0.06,Rainwise IP-100,2013-03-25 18:45:00,
2013-03-25 14:50:00,34.9,33.0,29.75,NW,315,1.0,9.0,96,0.12,,,0.07,Rainwise IP-100,2013-03-25 18:50:00,
2013-03-25 14:55:00,35.5,35.0,29.75,WNW,292,0.0,5.0,96,0.12,,,0.08,Rainwise IP-100,2013-03-25 18:55:00,
2013-03-25 15:00:00,35.5,35.0,29.75,NW,315,2.0,5.0,96,0.06,,,0.09,Rainwise IP-100,2013-03-25 19:00:00,
2013-03-25 15:05:00,35.3,33.0,29.76,West,270,0.0,7.0,96,0.06,,,0.09,Rainwise IP-100,2013-03-25 19:05:00,
2013-03-25 15:10:00,34.7,33.0,29.75,WNW,292,2.0,7.0,96,0.12,,,0.10,Rainwise IP-100,2013-03-25 19:10:00,
2013-03-25 15:15:00,34.4,35.0,29.76,South,180,0.0,9.0,99,0.06,,,0.11,Rainwise IP-100,2013-03-25 19:15:00,
2013-03-25 15:20:00,34.6,35.0,29.76,NNW,337,0.0,7.0,100,0.06,,,0.11,Rainwise IP-100,2013-03-25 19:20:00,
2013-03-25 15:25:00,34.7,35.0,29.77,West,270,5.0,6.0,99,0.12,,,0.12,Rainwise IP-100,2013-03-25 19:25:00,
2013-03-25 15:30:00,34.6,35.0,29.76,West,270,4.0,7.0,100,0.12,,,0.13,Rainwise IP-100,2013-03-25 19:30:00,
2013-03-25 15:35:00,34.5,35.0,29.77,NNW,337,0.0,8.0,99,0.06,,,0.13,Rainwise IP-100,2013-03-25 19:35:00,
2013-03-25 15:40:00,34.5,35.0,29.77,West,270,1.0,7.0,100,0.06,,,0.14,Rainwise IP-100,2013-03-25 19:40:00,
2013-03-25 15:45:00,34.4,35.0,29.77,West,270,2.0,7.0,100,0.12,,,0.15,Rainwise IP-100,2013-03-25 19:45:00,
2013-03-25 15:55:00,34.4,35.0,29.78,West,270,5.0,7.0,99,0.06,,,0.16,Rainwise IP-100,2013-03-25 19:55:00,
2013-03-25 16:00:00,34.0,33.0,29.78,WNW,292,2.0,8.0,97,0.06,,,0.16,Rainwise IP-100,2013-03-25 20:00:00,
2013-03-25 16:05:00,33.7,33.0,29.78,WNW,292,6.0,7.0,97,0.06,,,0.17,Rainwise IP-100,2013-03-25 20:05:00,
2013-03-25 16:10:00,33.9,35.0,29.78,NW,315,3.0,7.0,99,0.06,,,0.17,Rainwise IP-100,2013-03-25 20:10:00,
2013-03-25 16:15:00,33.7,35.0,29.79,NW,315,1.0,8.0,99,0.06,,,0.18,Rainwise IP-100,2013-03-25 20:15:00,
2013-03-25 16:20:00,33.7,35.0,29.79,West,270,2.0,6.0,100,0.06,,,0.18,Rainwise IP-100,2013-03-25 20:20:00,
2013-03-25 16:25:00,33.4,33.0,29.79,WNW,292,2.0,7.0,100,0.00,,,0.18,Rainwise IP-100,2013-03-25 20:25:00,
2013-03-25 16:30:00,33.4,33.0,29.79,WNW,292,3.0,6.0,100,0.00,,,0.18,Rainwise IP-100,2013-03-25 20:30:00,
2013-03-25 16:35:00,33.2,33.0,29.80,West,270,5.0,7.0,100,0.06,,,0.19,Rainwise IP-100,2013-03-25 20:35:00,
2013-03-25 16:40:00,33.2,33.0,29.80,West,270,4.0,7.0,100,0.06,,,0.19,Rainwise IP-100,2013-03-25 20:40:00,
2013-03-25 16:45:00,33.3,33.0,29.80,NE,45,0.0,5.0,100,0.00,,,0.19,Rainwise IP-100,2013-03-25 20:45:00,
2013-03-25 16:50:00,33.5,35.0,29.81,WNW,292,3.0,6.0,100,0.00,,,0.19,Rainwise IP-100,2013-03-25 20:50:00,
2013-03-25 16:55:00,33.7,35.0,29.81,WNW,292,3.0,7.0,98,0.06,,,0.20,Rainwise IP-100,2013-03-25 20:55:00,
2013-03-25 17:00:00,34.2,33.0,29.81,WNW,292,0.0,7.0,97,0.06,,,0.20,Rainwise IP-100,2013-03-25 21:00:00,
2013-03-25 17:05:00,34.7,33.0,29.81,NNW,337,5.0,9.0,95,0.00,,,0.20,Rainwise IP-100,2013-03-25 21:05:00,
2013-03-25 17:10:00,34.9,33.0,29.81,West,270,6.0,7.0,93,0.00,,,0.20,Rainwise IP-100,2013-03-25 21:10:00,
2013-03-25 17:15:00,35.0,33.0,29.82,NNE,22,0.0,10.0,93,0.06,,,0.21,Rainwise IP-100,2013-03-25 21:15:00,
2013-03-25 17:20:00,34.9,32.0,29.82,NW,315,5.0,10.0,92,0.06,,,0.21,Rainwise IP-100,2013-03-25 21:20:00,
2013-03-25 17:25:00,34.9,32.0,29.82,WNW,292,3.0,7.0,92,0.00,,,0.21,Rainwise IP-100,2013-03-25 21:25:00,
2013-03-25 17:30:00,34.8,32.0,29.82,WNW,292,5.0,7.0,91,0.06,,,0.22,Rainwise IP-100,2013-03-25 21:30:00,
2013-03-25 17:35:00,34.8,33.0,29.83,WNW,292,1.0,8.0,93,0.06,,,0.22,Rainwise IP-100,2013-03-25 21:35:00,
2013-03-25 17:40:00,34.7,32.0,29.83,WNW,292,5.0,7.0,91,0.00,,,0.22,Rainwise IP-100,2013-03-25 21:40:00,
2013-03-25 17:45:00,34.7,32.0,29.83,WNW,292,6.0,7.0,92,0.00,,,0.22,Rainwise IP-100,2013-03-25 21:45:00,
2013-03-25 17:50:00,34.6,32.0,29.83,West,270,3.0,7.0,92,0.00,,,0.22,Rainwise IP-100,2013-03-25 21:50:00,
2013-03-25 17:55:00,34.5,32.0,29.84,West,270,0.0,4.0,92,0.06,,,0.23,Rainwise IP-100,2013-03-25 21:55:00,
2013-03-25 18:00:00,34.5,32.0,29.84,NW,315,0.0,6.0,92,0.06,,,0.23,Rainwise IP-100,2013-03-25 22:00:00,
2013-03-25 18:05:00,34.5,32.0,29.84,West,270,4.0,6.0,92,0.00,,,0.23,Rainwise IP-100,2013-03-25 22:05:00,
2013-03-25 18:10:00,34.5,32.0,29.84,West,270,3.0,7.0,90,0.00,,,0.23,Rainwise IP-100,2013-03-25 22:10:00,
2013-03-25 18:15:00,34.6,32.0,29.84,West,270,6.0,7.0,89,0.06,,,0.24,Rainwise IP-100,2013-03-25 22:15:00,
2013-03-25 18:20:00,34.6,32.0,29.85,NNW,337,0.0,7.0,88,0.06,,,0.24,Rainwise IP-100,2013-03-25 22:20:00,
2013-03-25 18:25:00,34.7,31.0,29.85,West,270,3.0,7.0,87,0.00,,,0.24,Rainwise IP-100,2013-03-25 22:25:00,
2013-03-25 18:30:00,34.7,31.0,29.85,WNW,292,3.0,8.0,87,0.00,,,0.24,Rainwise IP-100,2013-03-25 22:30:00,
2013-03-25 18:35:00,34.7,31.0,29.85,NNE,22,0.0,6.0,87,0.00,,,0.24,Rainwise IP-100,2013-03-25 22:35:00,
2013-03-25 18:40:00,34.7,31.0,29.86,WNW,292,1.0,6.0,86,0.00,,,0.24,Rainwise IP-100,2013-03-25 22:40:00,
2013-03-25 18:45:00,34.7,31.0,29.86,NNW,337,4.0,7.0,86,0.00,,,0.25,Rainwise IP-100,2013-03-25 22:45:00,
2013-03-25 18:50:00,34.7,31.0,29.86,NE,45,7.0,7.0,86,0.06,,,0.25,Rainwise IP-100,2013-03-25 22:50:00,
2013-03-25 18:55:00,34.7,31.0,29.87,NW,315,3.0,8.0,86,0.06,,,0.25,Rainwise IP-100,2013-03-25 22:55:00,
2013-03-25 19:00:00,34.7,31.0,29.87,NNW,337,1.0,8.0,87,0.00,,,0.25,Rainwise IP-100,2013-03-25 23:00:00,
2013-03-25 19:05:00,34.6,31.0,29.87,NW,315,1.0,10.0,87,0.00,,,0.25,Rainwise IP-100,2013-03-25 23:05:00,
2013-03-25 19:10:00,34.5,32.0,29.88,WNW,292,2.0,6.0,88,0.00,,,0.25,Rainwise IP-100,2013-03-25 23:10:00,
2013-03-25 19:16:00,34.4,31.0,29.88,WNW,292,1.0,9.0,87,0.00,,,0.25,Rainwise IP-100,2013-03-25 23:16:00,
2013-03-25 19:21:00,34.4,32.0,29.88,NNW,337,6.0,7.0,88,0.00,,,0.26,Rainwise IP-100,2013-03-25 23:21:00,
2013-03-25 19:26:00,34.3,32.0,29.89,West,270,2.0,7.0,88,0.06,,,0.26,Rainwise IP-100,2013-03-25 23:26:00,
2013-03-25 19:31:00,34.2,32.0,29.89,North,360,2.0,12.0,88,0.06,,,0.26,Rainwise IP-100,2013-03-25 23:31:00,
2013-03-25 19:36:00,34.1,31.0,29.89,North,360,6.0,10.0,87,0.00,,,0.26,Rainwise IP-100,2013-03-25 23:36:00,
2013-03-25 19:41:00,34.1,31.0,29.90,NNE,22,6.0,13.0,87,0.00,,,0.26,Rainwise IP-100,2013-03-25 23:41:00,
2013-03-25 19:46:00,33.9,31.0,29.90,NNW,337,2.0,12.0,87,0.00,,,0.26,Rainwise IP-100,2013-03-25 23:46:00,
2013-03-25 19:51:00,33.9,32.0,29.90,NNE,22,8.0,8.0,88,0.00,,,0.26,Rainwise IP-100,2013-03-25 23:51:00,
2013-03-25 19:56:00,33.8,32.0,29.91,West,270,2.0,9.0,89,0.00,,,0.26,Rainwise IP-100,2013-03-25 23:56:00,
2013-03-25 20:01:00,33.7,32.0,29.91,North,360,2.0,12.0,90,0.00,,,0.26,Rainwise IP-100,2013-03-26 00:01:00,
2013-03-25 20:06:00,33.4,31.0,29.91,NNE,22,7.0,12.0,92,0.00,,,0.26,Rainwise IP-100,2013-03-26 00:06:00,
2013-03-25 20:11:00,33.3,31.0,29.91,North,360,4.0,12.0,92,0.00,,,0.26,Rainwise IP-100,2013-03-26 00:11:00,
2013-03-25 20:16:00,33.2,32.0,29.92,NW,315,2.0,7.0,93,0.00,,,0.26,Rainwise IP-100,2013-03-26 00:16:00,
2013-03-25 20:21:00,33.1,32.0,29.92,WNW,292,2.0,6.0,94,0.00,,,0.26,Rainwise IP-100,2013-03-26 00:21:00,
2013-03-25 20:26:00,32.9,32.0,29.92,NW,315,0.0,6.0,95,0.00,,,0.26,Rainwise IP-100,2013-03-26 00:26:00,
2013-03-25 20:31:00,32.9,32.0,29.92,WNW,292,0.0,6.0,96,0.00,,,0.26,Rainwise IP-100,2013-03-26 00:31:00,
2013-03-25 20:40:00,32.7,32.0,29.92,WSW,247,0.0,6.0,97,0.00,,,0.26,Rainwise IP-100,2013-03-26 00:40:00,
2013-03-25 20:45:00,32.7,32.0,29.93,NW,315,5.0,5.0,97,0.00,,,0.26,Rainwise IP-100,2013-03-26 00:45:00,
2013-03-25 20:50:00,32.7,33.0,29.93,WNW,292,2.0,6.0,98,0.00,,,0.26,Rainwise IP-100,2013-03-26 00:50:00,
2013-03-25 20:55:00,32.8,33.0,29.93,WNW,292,2.0,6.0,99,0.00,,,0.26,Rainwise IP-100,2013-03-26 00:55:00,
2013-03-25 21:00:00,32.7,33.0,29.93,NW,315,2.0,5.0,99,0.00,,,0.26,Rainwise IP-100,2013-03-26 01:00:00,
2013-03-25 21:05:00,32.7,33.0,29.94,NW,315,2.0,6.0,99,0.00,,,0.26,Rainwise IP-100,2013-03-26 01:05:00,
2013-03-25 21:10:00,32.7,33.0,29.94,WNW,292,0.0,4.0,99,0.06,,,0.27,Rainwise IP-100,2013-03-26 01:10:00,
2013-03-25 21:15:00,32.7,33.0,29.94,WNW,292,2.0,5.0,99,0.06,,,0.27,Rainwise IP-100,2013-03-26 01:15:00,
2013-03-25 21:20:00,32.7,33.0,29.94,WNW,292,1.0,6.0,100,0.00,,,0.27,Rainwise IP-100,2013-03-26 01:20:00,
2013-03-25 21:25:00,32.7,33.0,29.95,West,270,3.0,7.0,100,0.00,,,0.27,Rainwise IP-100,2013-03-26 01:25:00,
2013-03-25 21:30:00,32.7,33.0,29.95,WNW,292,3.0,6.0,100,0.00,,,0.27,Rainwise IP-100,2013-03-26 01:30:00,
2013-03-25 21:35:00,32.7,33.0,29.95,SSW,202,3.0,7.0,100,0.00,,,0.27,Rainwise IP-100,2013-03-26 01:35:00,
2013-03-25 21:40:00,32.7,33.0,29.95,NNW,337,5.0,7.0,100,0.00,,,0.27,Rainwise IP-100,2013-03-26 01:40:00,
2013-03-25 21:45:00,32.8,33.0,29.95,WNW,292,3.0,9.0,99,0.00,,,0.27,Rainwise IP-100,2013-03-26 01:45:00,
2013-03-25 21:50:00,32.8,33.0,29.95,NE,45,1.0,7.0,99,0.00,,,0.27,Rainwise IP-100,2013-03-26 01:50:00,
2013-03-25 21:55:00,32.7,33.0,29.96,NW,315,2.0,7.0,99,0.00,,,0.27,Rainwise IP-100,2013-03-26 01:55:00,
2013-03-25 22:00:00,32.7,33.0,29.96,NW,315,2.0,7.0,99,0.00,,,0.27,Rainwise IP-100,2013-03-26 02:00:00,
2013-03-25 22:05:00,32.7,33.0,29.96,WNW,292,3.0,7.0,99,0.00,,,0.27,Rainwise IP-100,2013-03-26 02:05:00,
2013-03-25 22:10:00,32.7,33.0,29.96,NNW,337,2.0,8.0,99,0.00,,,0.27,Rainwise IP-100,2013-03-26 02:10:00,
2013-03-25 22:15:00,32.6,33.0,29.96,NW,315,2.0,7.0,99,0.00,,,0.27,Rainwise IP-100,2013-03-26 02:15:00,
2013-03-25 22:20:00,32.6,33.0,29.97,NNW,337,2.0,7.0,98,0.00,,,0.27,Rainwise IP-100,2013-03-26 02:20:00,
2013-03-25 22:25:00,32.6,33.0,29.96,NW,315,1.0,6.0,99,0.00,,,0.27,Rainwise IP-100,2013-03-26 02:25:00,
2013-03-25 22:30:00,32.6,33.0,29.96,WNW,292,7.0,7.0,99,0.00,,,0.27,Rainwise IP-100,2013-03-26 02:30:00,
2013-03-25 22:35:00,32.6,33.0,29.97,WNW,292,4.0,7.0,99,0.00,,,0.27,Rainwise IP-100,2013-03-26 02:35:00,
2013-03-25 22:40:00,32.6,33.0,29.97,WNW,292,3.0,7.0,99,0.00,,,0.27,Rainwise IP-100,2013-03-26 02:40:00,
2013-03-25 22:45:00,32.6,33.0,29.97,NW,315,4.0,6.0,99,0.00,,,0.27,Rainwise IP-100,2013-03-26 02:45:00,
2013-03-25 22:50:00,32.6,33.0,29.97,NW,315,3.0,6.0,99,0.00,,,0.27,Rainwise IP-100,2013-03-26 02:50:00,
2013-03-25 22:55:00,32.5,33.0,29.97,WNW,292,5.0,9.0,99,0.00,,,0.27,Rainwise IP-100,2013-03-26 02:55:00,
2013-03-25 23:00:00,32.6,33.0,29.98,NNW,337,2.0,6.0,99,0.00,,,0.27,Rainwise IP-100,2013-03-26 03:00:00,
2013-03-25 23:05:00,32.6,33.0,29.98,NW,315,6.0,9.0,99,0.00,,,0.27,Rainwise IP-100,2013-03-26 03:05:00,
2013-03-25 23:10:00,32.7,33.0,29.98,NNE,22,0.0,10.0,98,0.00,,,0.27,Rainwise IP-100,2013-03-26 03:10:00,
2013-03-25 23:15:00,32.6,33.0,29.98,NW,315,6.0,9.0,99,0.00,,,0.27,Rainwise IP-100,2013-03-26 03:15:00,
2013-03-25 23:20:00,32.6,33.0,29.98,NNW,337,2.0,7.0,98,0.00,,,0.27,Rainwise IP-100,2013-03-26 03:20:00,
2013-03-25 23:25:00,32.5,33.0,29.98,NW,315,3.0,6.0,99,0.00,,,0.27,Rainwise IP-100,2013-03-26 03:25:00,
2013-03-25 23:30:00,32.5,33.0,29.98,NW,315,1.0,7.0,99,0.00,,,0.27,Rainwise IP-100,2013-03-26 03:30:00,
2013-03-25 23:35:00,32.5,33.0,29.98,North,360,3.0,7.0,98,0.00,,,0.27,Rainwise IP-100,2013-03-26 03:35:00,
2013-03-25 23:40:00,32.5,33.0,29.99,West,270,2.0,7.0,98,0.00,,,0.27,Rainwise IP-100,2013-03-26 03:40:00,
2013-03-25 23:45:00,32.5,33.0,29.99,NNW,337,6.0,6.0,98,0.00,,,0.27,Rainwise IP-100,2013-03-26 03:45:00,
2013-03-25 23:50:00,32.5,33.0,29.99,NW,315,0.0,12.0,98,0.00,,,0.27,Rainwise IP-100,2013-03-26 03:50:00,
2013-03-25 23:55:00,32.4,32.0,29.99,WNW,292,5.0,12.0,98,0.00,,,0.27,Rainwise IP-100,2013-03-26 03:55:00,